Temp
-13 -13 -13 -13 -13 -13 -14 -14 -14 -14 -13 -13 -13 -13 -13 -13 -14 -14 -14 -14 -14 -14 -14 -14 -14 -14 -14 -14 -14 -14 -14 -14 -14 -14 -14 -14 -14 -14 -13 -14 -14 -13
-13 -13 -13 -13 -14 -14 -14 -14 -14 -14 -14 -13 -13 -13 -13 -13 -14 -14 -14 -14 -14 -14 -14 -14 -14 -14 -14 -14 -14 -14 -14 -14 -14 -14 -14 -14 -14 -14 -13 -14 -14 -14
-14 -14 -14 -14 -14 -14 -14 -14 -14 -14 -14 -13 -13 -13 -13 -14 -14 -14 -14 -14 -14 -14 -14 -14 -14 -14 -14 -14 -15 -15 -14 -14 -14 -14 -14 -14 -14 -14 -14 -14 -14 -14
-14 -14 -14 -14 -14 -14 -14 -14 -14 -14 -14 -13 -14 -14 -14 -14 -14 -14 -14 -14 -14 -14 -14 -14 -14 -14 -14 -14 -15 -15 -15 -15 -14 -14 -14 -14 -14 -14 -14 -14 -14 -14
-14 -14 -14 -14 -14 -14 -14 -14 -14 -14 -14 -14 -14 -14 -14 -14 -14 -14 -14 -14 -14 -14 -14 -14 -14 -14 -14 -15 -15 -15 -15 -15 -14 -14 -14 -14 -14 -14 -14 -14 -14 -14
-14 -14 -14 -14 -14 -15 -15 -15 -14 -14 -14 -14 -14 -14 -15 -15 -15 -14 -14 -14 -14 -14 -14 -15 -15 -14 -14 -15 -15 -15 -15 -15 -15 -14 -14 -14 -14 -14 -14 -14 -14 -14
-14 -14 -14 -14 -15 -15 -15 -15 -15 -14 -14 -14 -14 -15 -15 -15 -15 -15 -15 -15 -14 -14 -15 -15 -15 -15 -14 -15 -15 -15 -15 -15 -15 -15 -15 -14 -14 -14 -14 -14 -14 -14
-14 -14 -14 -14 -15 -15 -15 -15 -15 -14 -14 -14 -14 -15 -15 -15 -15 -15 -15 -15 -15 -15 -15 -15 -15 -15 -15 -15 -15 -15 -15 -15 -15 -15 -15 -15 -15 -15 -15 -14 -14 -14
-15 -14 -14 -15 -15 -15 -15 -15 -15 -14 -14 -14 -14 -14 -15 -15 -15 -15 -15 -15 -15 -15 -15 -15 -15 -15 -15 -15 -15 -15 -15 -15 -15 -15 -15 -15 -15 -15 -15 -14 -14 -14
-15 -15 -15 -15 -15 -15 -15 -15 -15 -15 -15 -14 -14 -15 -15 -15 -15 -15 -15 -14 -14 -14 -15 -15 -15 -15 -15 -15 -15 -15 -15 -15 -15 -15 -15 -15 -15 -15 -15 -15 -15 -15
-15 -15 -15 -15 -15 -14 -15 -15 -15 -15 -15 -15 -15 -15 -15 -15 -14 -14 -14 -15 -15 -15 -15 -15 -15 -15 -15 -15 -15 -15 -15 -15 -15 -15 -15 -15 -15 -15 -15 -15 -15 -15
-15 -15 -15 -15 -15 -15 -15 -15 -15 -15 -15 -15 -15 -15 -15 -15 -15 -15 -15 -15 -15 -15 -15 -15 -15 -15 -15 -15 -15 -15 -15 -15 -15 -15 -15 -15 -15 -15 -15 -15 -15 -15
-15 -15 -15 -15 -15 -15 -15 -15 -15 -15 -15 -15 -15 -15 -15 -15 -15 -15 -15 -15 -15 -15 -15 -15 -15 -15 -15 -15 -15 -15 -15 -15 -15 -15 -15 -15 -15 -15 -15 -15 -15 -15
-15 -15 -15 -15 -15 -15 -15 -15 -15 -15 -15 -15 -15 -15 -15 -15 -15 -15 -15 -15 -15 -15 -15 -15 -15 -15 -15 -15 -15 -15 -15 -15 -15 -15 -15 -15 -15 -15 -15 -15 -15 -15
-15 -15 -15 -15 -15 -15 -15 -15 -15 -15 -15 -15 -15 -15 -15 -15 -15 -15 -15 -15 -15 -15 -15 -15 -15 -15 -15 -15 -15 -15 -15 -15 -15 -15 -15 -15 -15 -15 -15 -15 -15 -15
-15 -15 -15 -15 -15 -15 -15 -15 -15 -15 -15 -15 -15 -16 -15 -15 -16 -15 -15 -15 -15 -15 -15 -15 -15 -15 -15 -15 -15 -15 -15 -15 -15 -15 -15 -15 -15 -15 -15 -15 -15 -15
-15 -15 -15 -15 -15 -15 -15 -15 -15 -15 -16 -16 -16 -16 -15 -15 -16 -16 -15 -15 -15 -15 -15 -16 -16 -16 -15 -15 -15 -15 -15 -15 -15 -15 -15 -15 -15 -16 -15 -15 -15 -15
-14 -14 -15 -15 -15 -15 -15 -15 -15 -15 -16 -16 -16 -16 -16 -16 -16 -16 -15 -15 -15 -15 -15 -16 -16 -16 -15 -15 -15 -15 -15 -15 -15 -15 -15 -15 -16 -16 -16 -16 -16 -15
-15 -15 -15 -15 -15 -15 -15 -15 -15 -15 -16 -16 -16 -16 -16 -16 -16 -16 -16 -15 -15 -15 -15 -16 -16 -15 -15 -16 -15 -15 -15 -15 -15 -16 -16 -16 -16 -16 -16 -16 -16 -16
-15 -15 -15 -15 -15 -15 -15 -15 -15 -16 -16 -15 -15 -16 -16 -16 -16 -16 -15 -15 -15 -15 -15 -15 -15 -15 -16 -16 -16 -16 -16 -15 -15 -16 -16 -16 -16 -16 -16 -16 -16 -16
-15 -15 -15 -15 -15 -15 -15 -15 -15 -15 -15 -15 -15 -16 -16 -16 -16 -15 -15 -15 -16 -16 -15 -15 -15 -16 -16 -16 -16 -16 -16 -16 -15 -15 -16 -16 -16 -16 -16 -16 -16 -16
-15 -15 -15 -15 -15 -15 -15 -15 -15 -15 -15 -15 -16 -16 -16 -16 -16 -16 -16 -16 -16 -16 -16 -16 -16 -16 -16 -16 -16 -16 -16 -16 -16 -15 -16 -16 -16 -16 -16 -16 -16 -16
-15 -15 -15 -15 -15 -15 -15 -16 -16 -16 -16 -16 -16 -16 -16 -16 -16 -16 -16 -16 -16 -16 -16 -16 -16 -16 -16 -16 -16 -16 -16 -16 -16 -16 -16 -16 -16 -16 -17 -16 -16 -16
-16 -16 -16 -15 -15 -16 -16 -16 -16 -16 -16 -16 -16 -16 -16 -16 -16 -16 -16 -16 -16 -16 -16 -16 -16 -16 -16 -16 -16 -16 -16 -16 -16 -16 -16 -17 -17 -17 -17 -16 -16 -17
-16 -16 -16 -16 -16 -16 -16 -16 -16 -16 -16 -16 -16 -16 -16 -16 -16 -16 -16 -16 -16 -16 -16 -16 -16 -16 -16 -16 -16 -16 -16 -16 -16 -17 -17 -17 -17 -17 -17 -16 -16 -16
-16 -16 -16 -16 -16 -16 -16 -16 -16 -16 -16 -16 -16 -17 -16 -16 -16 -16 -17 -17 -16 -16 -16 -16 -16 -16 -16 -16 -16 -16 -16 -16 -16 -16 -17 -17 -17 -17 -16 -16 -16 -16
Height
5774 5775 5775 5776 5776 5776 5777 5778 5780 5781 5782 5783 5783 5783 5783 5785 5786 5787 5789 5790 5791 5792 5793 5794 5795 5795 5796 5797 5797 5797 5797 5798 5798 5799 5800 5800 5801 5801 5801 5802 5801 5802
5770 5772 5773 5773 5774 5774 5775 5776 5778 5779 5780 5781 5781 5781 5781 5782 5784 5785 5787 5788 5789 5790 5791 5792 5793 5793 5794 5794 5795 5795 5795 5796 5797 5797 5798 5799 5799 5800 5800 5800 5800 5800
5766 5768 5769 5770 5771 5772 5773 5774 5776 5777 5778 5778 5778 5778 5779 5780 5782 5783 5784 5786 5787 5788 5789 5790 5791 5791 5792 5792 5793 5793 5794 5795 5795 5796 5797 5797 5797 5798 5798 5799 5799 5799
5763 5765 5766 5767 5769 5770 5771 5772 5774 5775 5775 5776 5776 5777 5777 5778 5779 5781 5782 5783 5784 5786 5787 5788 5789 5790 5790 5791 5791 5792 5793 5793 5794 5794 5795 5795 5795 5796 5796 5797 5797 5797
5760 5762 5763 5765 5767 5768 5769 5770 5772 5773 5773 5773 5774 5775 5776 5776 5777 5779 5780 5781 5782 5783 5785 5786 5787 5788 5789 5789 5790 5791 5791 5792 5792 5793 5793 5793 5793 5793 5794 5794 5795 5795
5757 5759 5761 5763 5764 5766 5767 5769 5770 5771 5771 5771 5772 5773 5774 5775 5776 5777 5778 5779 5780 5781 5782 5784 5785 5786 5787 5788 5789 5789 5790 5791 5791 5791 5791 5791 5791 5791 5792 5792 5792 5793
5754 5756 5758 5759 5761 5763 5765 5767 5768 5769 5769 5770 5770 5771 5773 5774 5775 5776 5777 5778 5779 5780 5780 5781 5783 5784 5785 5786 5787 5788 5788 5789 5789 5789 5790 5790 5790 5790 5790 5790 5790 5790
5753 5755 5756 5757 5759 5761 5763 5765 5766 5767 5767 5768 5769 5770 5771 5773 5774 5775 5776 5777 5778 5778 5779 5780 5781 5782 5783 5784 5785 5786 5786 5787 5787 5788 5788 5788 5788 5788 5788 5788 5788 5788
5752 5754 5756 5757 5758 5760 5761 5763 5763 5764 5765 5766 5767 5768 5770 5771 5772 5773 5774 5775 5776 5777 5777 5778 5779 5780 5781 5782 5783 5784 5784 5785 5785 5786 5786 5786 5786 5787 5786 5786 5786 5787
5751 5753 5755 5756 5757 5758 5759 5760 5761 5761 5763 5765 5766 5767 5768 5769 5770 5771 5773 5774 5775 5775 5776 5776 5777 5778 5779 5780 5781 5782 5783 5783 5783 5784 5784 5784 5785 5785 5785 5785 5785 5785
5748 5750 5752 5753 5754 5755 5756 5757 5758 5760 5762 5763 5764 5765 5766 5767 5768 5770 5771 5772 5773 5774 5774 5775 5775 5776 5777 5778 5779 5780 5781 5781 5781 5782 5782 5782 5782 5782 5782 5782 5782 5782
5744 5747 5749 5751 5752 5752 5753 5754 5756 5758 5760 5761 5763 5764 5765 5765 5766 5768 5769 5770 5771 5771 5772 5773 5773 5774 5775 5776 5777 5778 5778 5779 5779 5779 5780 5780 5780 5780 5780 5780 5780 5780
5741 5743 5746 5747 5749 5750 5751 5753 5754 5756 5757 5759 5760 5762 5763 5763 5764 5765 5766 5767 5768 5769 5770 5770 5771 5772 5773 5774 5774 5775 5776 5776 5777 5777 5777 5778 5778 5778 5778 5777 5778 5778
5739 5741 5743 5745 5746 5748 5750 5752 5753 5754 5755 5756 5758 5759 5760 5761 5762 5762 5763 5764 5765 5766 5767 5767 5768 5770 5771 5772 5772 5772 5773 5774 5774 5775 5775 5775 5775 5775 5775 5775 5775 5775
5738 5740 5741 5743 5744 5746 5747 5749 5750 5751 5753 5754 5756 5757 5757 5758 5759 5759 5760 5762 5762 5763 5764 5764 5766 5767 5768 5769 5769 5770 5771 5772 5772 5773 5773 5773 5773 5773 5773 5773 5773 5773
5736 5738 5739 5740 5742 5743 5745 5746 5747 5749 5750 5751 5753 5753 5753 5755 5756 5756 5757 5759 5760 5760 5761 5762 5763 5764 5765 5766 5767 5768 5768 5769 5769 5770 5770 5770 5771 5771 5771 5771 5771 5771
5734 5736 5736 5737 5739 5741 5742 5743 5744 5746 5747 5749 5750 5750 5751 5752 5752 5753 5755 5756 5756 5757 5758 5759 5760 5761 5762 5763 5764 5764 5765 5766 5766 5767 5767 5767 5767 5768 5768 5768 5768 5768
5731 5733 5734 5735 5736 5737 5739 5740 5741 5743 5744 5746 5747 5747 5748 5749 5750 5751 5752 5753 5753 5754 5755 5757 5757 5758 5758 5760 5760 5761 5762 5762 5763 5763 5764 5764 5764 5764 5765 5765 5765 5765
5728 5730 5731 5732 5733 5734 5736 5737 5738 5740 5741 5742 5743 5744 5745 5746 5747 5748 5748 5749 5750 5752 5753 5754 5754 5755 5756 5757 5757 5758 5758 5759 5759 5760 5760 5760 5761 5761 5761 5762 5762 5762
5725 5727 5728 5730 5730 5731 5733 5734 5736 5737 5738 5740 5741 5741 5742 5743 5743 5744 5745 5746 5747 5749 5749 5750 5751 5752 5753 5754 5754 5754 5755 5755 5756 5756 5757 5757 5757 5758 5758 5758 5759 5759
5723 5724 5725 5727 5728 5729 5730 5732 5733 5735 5736 5737 5739 5739 5739 5740 5740 5741 5742 5743 5744 5745 5746 5747 5748 5749 5749 5750 5751 5751 5751 5751 5751 5752 5753 5753 5754 5755 5755 5754 5755 5755
5721 5722 5723 5724 5726 5727 5728 5729 5731 5733 5734 5735 5736 5736 5736 5737 5737 5738 5739 5740 5740 5741 5741 5743 5744 5744 5745 5746 5747 5747 5748 5748 5749 5749 5750 5750 5750 5751 5751 5751 5751 5752
5719 5720 5721 5722 5724 5725 5726 5727 5729 5730 5731 5732 5732 5733 5733 5734 5735 5735 5736 5736 5737 5737 5738 5739 5740 5741 5742 5742 5743 5744 5744 5745 5746 5746 5746 5746 5747 5747 5747 5748 5748 5748
5718 5719 5720 5721 5722 5722 5723 5725 5726 5726 5727 5728 5729 5730 5730 5731 5732 5732 5733 5733 5734 5734 5735 5736 5737 5737 5738 5739 5739 5740 5741 5742 5742 5743 5743 5743 5743 5743 5744 5744 5744 5743
5717 5718 5719 5720 5721 5721 5721 5722 5723 5724 5725 5725 5726 5726 5727 5728 5729 5729 5730 5730 5731 5732 5732 5733 5733 5734 5735 5735 5736 5737 5738 5739 5739 5739 5739 5739 5739 5739 5740 5740 5740 5739
5715 5715 5717 5718 5718 5719 5719 5720 5721 5721 5722 5722 5723 5723 5724 5724 5725 5726 5726 5727 5728 5729 5729 5730 5730 5731 5732 5732 5733 5734 5735 5735 5736 5735 5735 5736 5736 5735 5736 5736 5736 5735
Wind_Speed
20 20 19 19 20 20 19 19 20 21 21 20 19 17 17 17 16 16 15 15 14 14 13 13 13 13 13 13 13 13 13 13 12 12 12 13 13 14 14 14 15 15
19 19 19 20 21 21 19 18 20 21 21 20 18 17 17 17 17 16 15 15 14 14 14 13 14 14 13 13 13 13 13 13 12 12 13 13 14 14 15 15 16 16
19 19 20 21 21 22 21 20 20 21 21 20 19 19 19 18 18 16 16 15 14 15 15 14 14 14 14 14 13 13 13 13 13 13 13 14 15 16 16 17 17 18
20 20 21 22 22 23 24 22 21 21 22 21 20 20 19 19 18 17 17 16 15 15 15 14 15 15 15 14 14 14 14 14 14 14 15 16 17 17 17 17 18 18
21 21 21 21 22 24 24 23 22 23 23 21 20 20 20 19 19 19 18 17 17 16 15 15 15 16 16 15 15 15 15 16 16 17 17 17 18 18 17 18 18 17
23 22 22 21 22 23 24 23 24 24 23 21 20 20 19 19 19 19 18 17 16 15 14 14 15 15 16 16 16 17 17 18 18 18 18 18 18 18 18 17 17 17
23 22 23 22 23 23 23 23 23 22 22 21 20 21 21 21 20 20 19 17 15 13 12 12 13 15 16 16 17 17 18 18 19 19 19 19 19 19 18 18 18 19
21 21 22 23 22 22 21 21 20 21 21 21 21 23 24 23 22 21 20 18 16 14 13 13 14 15 16 16 17 17 18 19 20 20 20 20 20 19 19 19 20 20
18 18 20 21 19 19 19 19 19 21 21 22 23 24 25 24 24 22 20 19 17 17 16 16 16 16 16 17 17 18 19 19 20 20 20 21 20 20 20 20 20 20
18 18 19 20 18 19 19 18 20 21 22 22 23 23 23 24 24 21 19 18 18 17 17 16 16 16 17 18 18 18 19 19 18 18 18 19 20 20 21 20 20 20
20 19 20 21 20 19 19 19 20 21 21 22 22 22 22 22 22 20 19 18 17 17 16 16 16 16 17 18 18 19 18 18 18 18 18 18 19 20 21 20 20 19
21 19 19 21 20 19 19 20 20 21 21 22 22 21 22 22 21 21 20 19 18 18 18 18 17 17 17 18 18 19 18 18 18 18 18 19 19 20 20 20 20 20
22 20 20 22 22 20 20 19 20 21 22 22 22 22 23 23 22 22 22 21 20 20 20 20 19 18 17 18 18 19 19 19 19 19 18 18 19 19 20 20 21 21
22 21 20 21 23 22 20 19 20 21 22 22 22 23 24 24 23 24 23 22 22 22 22 22 21 19 18 18 19 19 19 19 19 19 18 19 19 20 20 21 22 22
23 22 21 21 22 22 21 21 21 21 21 22 22 23 25 25 25 25 24 23 23 22 22 23 22 21 19 19 20 19 19 19 20 20 20 20 20 21 21 22 22 23
25 24 24 25 24 23 23 23 23 22 22 22 22 24 25 26 26 27 26 25 25 24 24 24 23 22 21 21 21 20 20 20 21 21 21 21 21 22 22 23 23 23
26 25 26 27 26 25 24 24 25 24 23 23 23 25 26 26 26 27 26 25 25 25 25 24 23 23 23 22 22 22 22 22 22 22 23 23 23 24 24 23 22 22
26 25 25 27 27 25 24 25 26 26 24 24 24 25 26 26 26 26 26 25 24 23 23 23 23 23 22 22 23 24 24 24 23 23 23 24 25 25 23 21 21 20
25 24 25 26 26 25 25 25 24 24 23 23 22 23 24 26 28 28 27 26 24 22 22 22 23 23 22 23 24 24 25 25 25 24 24 24 24 24 22 19 19 18
22 23 25 25 25 24 24 23 22 21 21 20 20 20 21 23 26 28 28 27 25 24 23 23 24 24 23 24 25 25 26 27 27 26 25 24 24 24 22 20 20 19
23 24 25 25 24 23 23 22 21 20 20 20 20 20 19 19 20 22 24 24 24 26 27 26 26 26 26 26 26 27 29 29 29 28 26 26 26 24 23 23 23 22
20 21 23 23 22 22 22 21 19 19 20 21 20 20 19 18 17 17 18 18 19 22 25 25 25 25 25 25 26 28 30 29 29 29 28 27 25 23 24 25 25 25
13 14 16 18 20 20 20 20 20 21 22 21 20 21 20 19 19 17 16 15 16 17 19 20 20 20 21 22 23 25 26 25 25 25 24 23 22 23 25 26 26 27
13 13 13 14 15 16 16 18 19 20 20 21 21 22 22 21 20 18 17 16 16 16 17 18 19 20 21 22 23 23 23 23 22 21 21 22 23 24 26 27 28 29
17 16 16 16 16 17 17 17 18 18 18 19 20 20 21 20 19 18 18 18 18 18 18 19 19 20 21 22 23 23 23 23 23 22 22 23 24 26 27 28 28 30
19 19 19 20 20 21 21 21 20 20 19 19 21 22 21 20 20 20 20 20 20 20 20 21 21 21 22 22 23 23 24 24 24 25 26 26 27 28 29 30 30 32
Wind_Direction
259 256 256 257 257 257 255 252 249 248 252 256 255 253 252 251 251 252 252 254 256 260 262 263 261 256 251 247 247 248 249 252 254 254 255 256 259 262 265 267 269 271
261 256 254 255 255 254 251 248 247 247 249 251 250 249 251 251 252 253 254 255 257 260 263 264 261 254 245 239 240 243 246 250 253 255 258 261 263 265 267 269 270 272
260 255 252 252 251 250 248 244 246 248 246 247 247 248 249 247 246 246 248 252 257 262 265 265 260 252 242 236 237 241 245 248 252 257 262 265 267 268 269 271 272 271
257 251 249 249 248 249 245 241 244 247 245 243 243 243 242 240 240 241 245 251 257 264 265 262 257 248 240 236 237 240 245 249 254 259 264 267 269 269 269 270 271 271
257 252 250 249 248 243 238 239 246 247 244 241 239 238 238 238 240 242 245 250 256 261 262 257 251 243 237 234 237 242 246 251 255 260 263 266 268 270 271 272 272 273
257 254 253 251 244 236 235 243 249 247 244 241 239 238 237 239 243 244 245 249 253 257 256 250 244 240 236 235 238 243 248 253 257 260 262 265 267 269 270 269 270 272
254 254 254 247 236 232 239 247 249 249 249 248 243 239 239 242 244 244 244 247 250 248 244 240 239 240 239 239 242 247 252 256 258 260 261 263 265 266 265 265 267 270
253 254 248 238 232 235 243 247 248 252 253 251 246 243 244 245 244 244 244 245 244 242 240 240 242 244 245 247 250 252 256 259 261 262 263 263 263 262 262 264 266 270
252 252 239 229 232 238 242 244 247 251 251 248 247 246 246 245 244 243 243 242 241 241 243 246 248 250 252 254 254 255 257 261 264 266 265 263 261 260 262 264 266 268
251 252 243 238 241 241 239 241 245 247 247 245 245 244 244 245 245 245 245 245 245 246 248 252 253 255 254 254 255 256 259 263 266 267 265 261 258 259 262 264 266 267
253 252 249 245 247 243 236 237 242 245 246 244 244 244 244 246 248 249 249 249 250 252 254 255 255 254 253 253 254 256 260 264 265 264 263 260 258 259 261 264 268 270
251 248 247 244 245 244 239 237 239 243 244 244 246 247 246 247 249 250 250 250 252 254 255 255 254 251 250 251 253 257 261 264 264 263 262 259 258 259 262 267 272 276
252 248 245 240 240 243 244 243 240 240 240 242 245 247 247 248 248 250 251 253 255 257 258 258 255 250 248 251 254 258 262 263 263 261 259 257 259 262 268 273 277 279
250 246 243 239 239 242 246 248 245 242 241 241 243 245 247 247 248 250 253 255 258 260 261 262 260 256 251 250 253 258 261 262 261 259 255 255 259 265 272 277 279 280
248 246 246 245 244 245 247 248 248 246 244 244 244 246 247 248 249 252 254 256 258 260 261 263 264 262 255 250 251 255 259 260 260 258 255 255 260 268 275 279 280 281
252 251 250 249 247 247 248 247 246 244 246 248 247 248 249 249 251 253 255 257 258 259 260 263 265 264 258 253 251 253 255 256 256 255 254 254 260 268 276 280 281 281
255 254 252 250 249 249 249 246 243 244 247 250 249 249 250 250 251 253 255 257 258 259 260 262 265 264 260 255 253 253 253 254 254 253 253 255 259 267 276 282 284 284
254 252 250 249 249 250 248 244 243 245 248 249 249 250 251 251 252 255 257 258 259 260 261 262 262 261 261 259 257 256 255 253 254 254 254 256 260 267 275 281 282 283
248 247 249 249 248 249 248 243 243 246 247 248 251 252 253 254 255 256 258 259 259 260 262 261 259 259 261 261 261 260 257 254 254 255 256 258 262 267 270 271 273 273
245 246 249 248 245 245 244 243 245 247 247 249 252 254 257 259 258 256 257 258 259 260 260 259 258 258 260 262 263 264 262 258 254 253 254 257 261 265 265 264 266 265
243 244 245 244 242 239 239 242 244 245 244 245 251 256 260 261 259 256 256 258 260 263 264 262 260 258 259 261 260 260 261 262 262 260 260 259 259 260 261 261 263 264
239 240 241 239 237 236 237 238 238 238 240 243 249 256 258 257 256 256 258 258 257 258 259 258 256 256 257 256 254 253 255 259 263 264 262 258 254 254 257 261 264 266
242 238 235 232 232 233 233 233 234 237 240 242 247 251 255 257 258 258 257 255 252 250 251 252 253 254 255 254 253 252 253 255 256 257 255 252 250 252 256 260 263 264
259 252 244 238 235 234 233 234 239 245 247 248 248 250 254 257 256 254 253 252 253 254 255 255 255 255 254 255 254 255 256 257 256 255 253 251 251 252 255 257 259 261
262 259 255 249 245 243 243 244 248 251 252 250 249 251 255 255 251 249 251 251 252 254 255 255 254 252 252 253 255 256 257 258 259 258 255 253 253 254 257 259 261 263
259 258 256 253 250 249 249 249 249 247 243 242 243 246 250 253 252 251 250 249 250 251 251 251 250 249 249 251 253 255 258 261 262 262 260 260 260 262 265 267 268 269